Dewpoint
61 62 54 50 44 46 43 48 51 49 48 53 52 51 49 53 48 45 64 66 69 71 74 74 77 76 74 73 72 71 71 72 72 71 72 72 72 73 73 73 73 72 72 72 71 71 70 69 69
46 50 45 45 42 40 41 49 49 46 49 52 51 52 50 49 62 64 64 67 69 72 73 74 76 75 74 73 72 71 71 71 72 71 72 72 73 73 73 73 73 72 72 71 70 69 69 68 69
57 42 37 44 44 39 40 46 51 46 47 49 49 53 49 54 64 64 66 68 71 71 73 74 75 73 73 73 72 72 71 72 72 71 72 72 73 73 73 73 73 71 70 69 68 68 68 68 68
40 40 32 34 41 42 43 46 50 48 48 50 50 50 52 62 63 65 67 69 69 70 70 74 75 74 73 72 71 71 71 72 72 71 72 72 73 73 73 73 72 71 70 69 68 68 67 68 68
27 28 24 22 23 32 47 49 49 48 48 50 53 52 55 64 66 66 66 67 68 68 70 73 75 73 73 71 72 71 72 72 72 71 72 72 72 72 72 72 71 71 70 69 69 68 69 70 70
27 27 24 22 22 27 47 49 49 49 48 51 51 52 58 65 64 63 64 66 68 70 71 72 73 73 73 73 72 72 73 73 72 72 72 72 72 72 72 72 71 71 70 70 69 71 71 71 71
27 27 26 24 22 29 46 50 48 48 47 51 52 50 60 63 63 63 64 67 69 70 71 70 71 71 72 72 72 72 73 73 73 73 73 73 73 72 72 72 71 71 72 72 72 72 72 72 72
28 28 25 25 23 22 45 50 50 49 46 53 52 51 58 61 64 64 65 66 67 69 69 68 70 70 70 70 72 72 72 73 73 72 72 73 72 72 72 73 73 71 72 72 72 73 72 72 72
28 26 26 26 24 24 49 48 50 50 48 48 52 51 55 62 63 64 63 64 65 67 66 68 68 68 69 69 70 72 72 72 72 72 72 73 71 71 72 72 72 72 72 73 73 73 72 72 72
22 26 26 27 25 24 45 48 48 47 48 49 48 52 60 62 62 62 62 62 63 64 66 67 67 68 68 70 69 69 70 70 70 71 70 71 69 69 71 71 72 72 73 73 73 73 73 73 69
17 19 20 23 26 26 46 47 49 49 48 48 48 52 60 61 62 61 61 60 60 62 66 67 68 69 68 69 68 69 69 69 69 70 69 69 69 68 69 69 68 69 71 70 70 69 69 68 67
23 14 16 14 30 33 37 47 47 49 47 51 48 53 59 60 60 61 61 61 59 62 63 66 67 68 68 67 69 69 69 68 69 69 69 68 67 67 66 67 67 66 67 67 69 68 66 63 64
5 5 7 9 9 21 27 45 45 45 46 51 49 50 56 59 60 61 61 62 61 60 60 63 65 67 67 66 68 68 69 69 69 68 68 68 66 66 66 65 66 66 67 67 66 65 64 64 66
3 3 5 6 7 10 25 38 43 42 48 52 47 49 51 53 56 60 60 60 61 61 60 62 62 64 64 64 67 67 67 68 68 68 68 68 67 66 64 63 64 64 66 66 65 64 64 66 67
9 5 9 9 8 10 19 34 41 43 52 51 49 49 49 50 51 51 57 60 60 61 61 61 61 62 62 62 65 64 65 66 66 66 66 67 67 66 66 65 65 64 64 65 65 64 67 68 67
8 10 7 8 8 10 13 28 36 45 52 51 49 51 52 53 52 56 56 52 55 60 60 61 61 60 60 61 64 62 62 64 64 64 65 66 67 67 66 66 65 65 66 66 68 68 68 67 66
9 7 10 9 11 10 24 34 39 42 40 39 44 45 47 47 48 52 58 60 58 58 59 60 60 60 60 60 63 62 61 62 63 63 64 65 66 67 66 66 66 66 67 69 69 68 67 67 66
5 8 12 11 33 37 35 32 33 35 34 33 34 35 38 43 46 49 50 50 53 57 60 61 59 59 60 61 62 62 62 63 63 63 64 65 66 66 66 66 66 66 68 69 68 67 68 66 65
12 13 13 16 33 32 29 28 28 30 31 31 32 33 34 38 44 45 49 53 53 52 56 60 64 63 62 63 62 63 63 63 63 63 64 66 66 66 66 65 67 67 69 68 68 67 66 65 62
15 12 9 29 31 29 27 26 28 29 29 31 32 33 33 35 36 38 42 47 50 54 54 56 58 61 65 63 64 63 63 63 64 64 64 67 67 66 66 65 66 68 69 69 68 66 64 63 60
12 10 10 10 28 26 26 25 28 29 29 30 32 34 35 35 37 40 41 41 43 45 48 50 56 58 59 64 66 65 64 63 62 62 63 64 67 67 67 67 68 68 69 69 67 66 63 61 59
12 13 13 18 20 18 28 22 27 27 28 30 30 33 34 35 36 37 39 40 42 41 43 46 49 50 57 61 63 63 63 61 61 61 62 63 66 69 68 68 69 68 69 69 68 66 62 57 56
19 22 19 21 19 18 27 24 26 27 27 29 29 31 31 31 32 32 33 34 37 39 42 44 46 50 49 51 58 59 62 64 64 64 64 64 64 66 69 69 68 69 70 70 68 65 60 55 54
27 26 25 24 19 22 27 25 25 25 28 29 29 30 30 29 30 30 31 32 32 33 34 36 39 44 45 47 49 53 56 59 62 63 65 65 65 64 67 70 70 70 70 69 67 65 61 57 53
25 22 20 19 21 24 26 26 26 27 28 28 28 28 28 29 30 30 31 31 31 32 33 33 35 39 41 43 46 49 52 55 57 60 61 61 61 62 62 66 70 70 70 69 66 64 60 58 57
25 24 21 17 26 28 29 25 24 27 29 28 28 28 28 29 29 30 30 31 31 32 33 33 34 36 36 37 41 43 45 49 52 56 58 56 57 62 63 64 66 69 68 66 63 61 60 58 56
24 16 21 22 23 27 26 25 24 24 28 28 27 27 27 28 29 30 31 31 32 33 34 34 34 34 34 35 35 37 39 41 43 47 50 54 56 58 60 64 64 66 65 62 61 60 59 57 54
20 22 17 20 17 21 24 25 24 23 27 27 27 26 27 28 30 31 31 32 33 33 33 33 34 34 34 35 35 35 37 39 40 42 45 49 53 55 56 61 65 64 63 61 60 60 58 56 54
16 15 20 21 21 23 22 23 24 24 28 27 26 26 26 29 30 30 31 31 32 33 33 33 34 35 35 36 36 36 37 38 40 41 43 46 49 52 53 59 65 62 61 61 60 58 57 55 54
24 19 18 20 14 22 24 23 25 25 28 27 26 26 28 28 29 30 30 31 32 32 33 33 33 34 35 35 37 37 37 39 40 41 42 45 46 49 51 55 64 62 61 61 59 57 57 55 54
Lifted_Index
5 4 3 2 0 0 -0 -1 -1 -0 -1 -1 -1 -0 -0 -0 -0 -0 -0 -0 -1 -2 -4 -4 -5 -4 -3 -3 -2 -2 -2 -2 -2 -2 -3 -3 -3 -3 -3 -3 -3 -3 -3 -3 -3 -2 -2 -2 -2
6 5 4 2 1 1 1 0 -0 -0 -1 -1 -1 -1 -0 -0 -1 -1 -0 -1 -1 -3 -4 -4 -4 -4 -3 -3 -2 -2 -2 -2 -2 -2 -3 -3 -3 -3 -3 -3 -3 -3 -3 -3 -3 -2 -2 -2 -2
5 5 4 2 1 1 1 1 -0 -1 -1 -2 -2 -1 -1 -1 -1 -1 -1 -1 -1 -3 -4 -4 -4 -3 -3 -3 -2 -2 -2 -2 -2 -3 -3 -3 -3 -3 -3 -3 -3 -3 -3 -3 -2 -2 -2 -2 -2
5 4 3 2 1 2 2 1 -0 -1 -2 -2 -2 -2 -1 -1 -2 -1 -1 -1 -1 -2 -3 -4 -4 -3 -3 -2 -2 -2 -2 -2 -3 -3 -3 -3 -3 -3 -3 -3 -3 -3 -3 -2 -2 -2 -1 -1 -2
4 4 3 2 2 2 2 1 -0 -1 -2 -2 -2 -2 -2 -2 -2 -1 -0 -0 -1 -2 -3 -4 -4 -3 -3 -2 -2 -2 -2 -3 -3 -3 -3 -3 -3 -3 -3 -3 -3 -3 -2 -2 -2 -1 -1 -1 -1
4 3 2 2 2 2 1 1 0 -1 -1 -2 -2 -2 -2 -2 -2 -1 0 0 -0 -1 -3 -3 -3 -3 -3 -3 -2 -3 -3 -3 -3 -3 -3 -3 -3 -3 -3 -3 -3 -3 -2 -2 -2 -2 -2 -2 -2
4 3 2 2 2 2 1 0 -0 -1 -1 -2 -2 -2 -2 -2 -1 -0 0 0 -0 -1 -2 -3 -3 -3 -3 -3 -3 -3 -3 -3 -3 -3 -3 -3 -3 -3 -3 -3 -3 -3 -3 -2 -2 -2 -2 -2 -2
4 3 2 2 2 2 1 0 -0 -1 -2 -2 -2 -2 -2 -2 -2 -1 -0 0 -0 -1 -2 -2 -3 -3 -3 -3 -3 -3 -3 -3 -3 -3 -3 -3 -3 -3 -3 -3 -3 -3 -3 -3 -3 -3 -3 -3 -3
4 3 2 2 2 2 2 1 -0 -1 -2 -2 -2 -2 -3 -3 -3 -2 -0 0 0 -1 -1 -2 -2 -3 -2 -2 -2 -2 -3 -3 -3 -3 -3 -3 -3 -3 -3 -3 -3 -3 -3 -3 -3 -3 -3 -3 -3
4 3 2 2 2 3 2 1 -0 -1 -1 -2 -2 -2 -3 -4 -3 -2 -1 -0 -0 -0 -1 -1 -1 -2 -2 -2 -2 -2 -2 -3 -3 -3 -3 -3 -2 -2 -2 -3 -3 -3 -3 -4 -4 -4 -4 -3 -3
5 3 2 2 2 3 2 0 -1 -1 -2 -2 -2 -3 -4 -4 -4 -3 -2 -2 -1 -1 -0 -0 -1 -1 -1 -1 -1 -2 -2 -2 -2 -2 -2 -2 -2 -1 -1 -2 -2 -2 -3 -3 -3 -3 -3 -3 -3
5 4 3 2 2 3 2 0 -1 -2 -2 -3 -3 -3 -4 -4 -4 -4 -3 -3 -3 -2 -0 -0 -0 -1 -1 -0 -1 -1 -2 -2 -2 -2 -2 -1 -1 -1 -1 -1 -1 -1 -2 -2 -3 -3 -3 -4 -4
6 5 4 3 2 2 2 1 -1 -2 -3 -3 -3 -3 -3 -4 -4 -4 -4 -4 -3 -2 -1 -0 -0 -0 -0 -0 -1 -1 -1 -1 -1 -1 -1 -1 -1 -0 -0 -1 -1 -1 -2 -2 -2 -3 -4 -4 -4
6 5 4 2 1 1 1 1 -1 -2 -3 -3 -3 -3 -3 -3 -4 -4 -4 -4 -4 -4 -3 -2 -1 -1 -1 -1 -1 -1 -1 -1 -1 -1 -1 -1 -0 -0 -0 -1 -2 -2 -2 -2 -2 -3 -4 -5 -5
6 5 3 2 1 1 1 1 -0 -1 -2 -3 -3 -3 -3 -3 -3 -3 -4 -4 -4 -4 -4 -3 -3 -3 -2 -2 -1 -1 -1 -1 -1 -1 -0 -0 -0 -0 -1 -2 -2 -2 -2 -2 -2 -3 -4 -5 -5
5 4 3 2 1 1 1 1 0 -1 -2 -3 -3 -3 -3 -2 -2 -2 -3 -3 -3 -4 -5 -5 -4 -4 -4 -3 -2 -1 -1 -1 -1 -1 -1 -1 -1 -1 -1 -2 -2 -2 -2 -3 -3 -4 -5 -5 -5
4 3 2 2 2 1 1 1 1 -0 -2 -3 -2 -2 -2 -1 -1 -2 -2 -3 -3 -3 -4 -4 -5 -5 -5 -4 -4 -3 -2 -2 -1 -1 -1 -1 -2 -2 -2 -2 -2 -3 -3 -4 -5 -5 -5 -5 -5
3 3 2 2 2 2 1 2 2 1 -0 -1 -1 -1 -1 -0 0 -0 -2 -2 -2 -2 -3 -4 -4 -5 -5 -5 -4 -4 -3 -3 -2 -2 -2 -2 -2 -2 -2 -2 -2 -3 -3 -4 -5 -6 -6 -6 -5
3 3 2 2 2 2 1 2 2 2 2 1 1 1 0 1 2 2 1 -1 -1 -2 -3 -4 -4 -5 -5 -4 -4 -4 -4 -4 -3 -3 -3 -3 -3 -3 -3 -3 -3 -3 -4 -5 -6 -6 -6 -6 -6
4 3 2 2 2 2 2 2 3 3 3 3 3 2 2 2 3 3 3 2 1 -0 -2 -3 -4 -5 -5 -5 -4 -4 -5 -5 -4 -4 -4 -4 -4 -3 -3 -3 -3 -4 -5 -6 -6 -7 -7 -7 -7
4 3 2 2 2 2 1 2 3 4 4 4 5 5 5 4 4 5 5 5 5 4 2 -1 -3 -4 -5 -5 -5 -5 -5 -5 -5 -5 -5 -5 -5 -5 -4 -4 -4 -4 -5 -6 -7 -7 -7 -7 -7
4 3 2 2 1 1 1 1 3 4 4 5 6 7 7 7 7 8 8 8 9 8 7 5 1 -2 -4 -5 -5 -6 -5 -5 -5 -5 -4 -5 -5 -5 -5 -5 -5 -5 -5 -6 -7 -7 -7 -6 -6
3 3 2 2 1 1 1 1 2 3 4 5 7 9 10 10 10 10 10 11 11 11 11 9 6 3 0 -1 -3 -4 -4 -5 -4 -4 -4 -4 -4 -4 -6 -6 -6 -6 -6 -6 -7 -7 -6 -6 -5
3 2 2 1 1 1 1 1 2 3 5 6 8 10 11 12 12 12 12 12 12 12 12 12 10 8 6 4 1 -1 -2 -3 -3 -4 -4 -3 -2 -3 -4 -6 -7 -7 -6 -6 -7 -6 -6 -5 -5
2 2 1 1 0 1 1 1 3 6 8 9 10 11 12 13 13 13 13 13 13 13 13 13 12 11 10 8 6 4 2 0 -1 -2 -3 -3 -2 -2 -2 -4 -6 -6 -6 -7 -7 -6 -5 -3 -3
2 2 1 1 0 1 1 1 4 8 10 11 12 12 13 13 13 14 14 14 14 14 14 14 13 13 12 12 10 8 6 4 2 0 -1 -2 -2 -1 -1 -2 -4 -5 -6 -6 -7 -6 -4 -2 -1
1 1 1 1 0 0 1 1 4 7 9 10 10 11 12 13 13 14 14 15 16 16 16 16 15 14 14 13 12 11 10 7 6 4 1 -0 -1 -1 -1 -1 -2 -4 -4 -5 -5 -5 -3 -1 -0
1 1 1 1 0 0 0 1 3 5 7 8 9 10 11 13 13 14 15 16 17 17 17 17 17 16 15 15 14 13 12 11 9 8 5 3 1 -0 -1 -1 -2 -3 -3 -2 -2 -2 -1 1 1
0 0 0 0 0 0 1 2 4 5 7 8 10 11 12 14 15 15 16 16 17 18 18 18 18 17 17 16 15 14 13 12 12 11 9 7 5 2 -0 -1 -3 -3 -2 -0 0 1 1 2 2
1 1 1 0 1 1 1 3 5 7 8 10 11 12 14 15 16 16 16 17 17 18 18 18 18 18 17 17 17 15 14 13 13 12 11 10 8 4 1 -1 -3 -3 -1 1 2 2 2 2 1